Regional Weather Roundup
Issued by NWS State College, PA

Home | Current Version | Previous Version | Text Only | Print | Product List | Glossary Off
Versions: 1 2 3 4 5 6 7 8 9 10 11 12 13 14 15 16 17 18 19 20 21 22 23 24 25 26 27 28 29 30 31 32 33 34 35 36 37 38 39 40 41 42 43 44 45 46 47 48 49 50

000
ASUS41 KCTP 191910
RWRCTP

REGIONAL WEATHER ROUNDUP
NATIONAL WEATHER SERVICE STATE COLLEGE PA
300 PM EDT SUN APR 19 2015

Note: "fair" indicates few or no clouds below 12,000 feet with no
significant weather and/or obstructions to visibility.

* = STATION THAT DOES NOT REPORT PRECIPITATION /E.G. RAIN...SNOW...ETC/
    THUNDER OR FOG.

PAZ002>004-007>009-013>016-020>023-029>032-192000-
WESTERN PENNSYLVANIA

CITY           SKY/WX    TMP DP  RH WIND       PRES   REMARKS
ERIE           PTSUNNY   57  35  43 NE9       29.88F
MEADVILLE      PTSUNNY   72  32  23 VRB5G18   29.89F
FRANKLIN*      PTSUNNY   70  36  28 SE16G26   29.93F
NEW CASTLE     FAIR      73  38  28 SE15G24   29.88F
BEAVER COUNTY  SUNNY     70  37  30 SE16G29   29.89F
BUTLER*        CLOUDY    70  37  30 SE17G23   29.93F
PITTSBURGH INT CLOUDY    70  38  31 SE18G26   29.89F
PITTSBURGH     CLOUDY    68  35  29 SE17G24   29.91F
INDIANA*       SUNNY     68  37  32 MISG      30.00F
LATROBE        PTSUNNY   68  37  32 SE14      29.96F
WASHINGTON CO* CLOUDY    66  39  37 SE20G29   29.91F
$$

PAZ004>006-010>012-017>019-024>028-033>037-041-042-045-046-049>053-192000-
CENTRAL PENNSYLVANIA

CITY           SKY/WX    TMP DP  RH WIND       PRES   REMARKS
BRADFORD       MOSUNNY   67  27  22 SE17G28   29.98F
DUBOIS         PTSUNNY   69  30  23 E18G26    29.97F
CLEARFIELD     PTSUNNY   67  32  27 SE13G20   30.01F
JOHNSTOWN      CLOUDY    61  34  36 SE14G28   30.00F
ALTOONA        CLOUDY    64  36  35 SE17G24   30.03F
STATE COLLEGE  SUNNY     64  32  29 SE14G20   30.05F
WILLIAMSPORT   MOSUNNY   70  26  19 SE9G21    30.05F
SELINSGROVE    MOSUNNY   67  37  33 S9        30.08F
FT INDIANTOWN  PTSUNNY   67  35  31 SE14      30.10F
CAPITAL CITY   CLOUDY    66  38  35 E13G21    30.09F
HARRISBURG     CLOUDY    65  40  39 SE16      30.09F
YORK           CLOUDY    64  40  41 SE14G24   30.10F
$$

PAZ038>040-043-044-047-048-054-055-060>062-067>071-192000-
EASTERN PENNSYLVANIA

CITY           SKY/WX    TMP DP  RH WIND       PRES   REMARKS
SCRANTON       MOSUNNY   69  23  17 VRB7      30.10F
MOUNT POCONO   SUNNY     61  23  23 SE12G18   30.14F
ALLENTOWN      MOSUNNY   67  33  28 VRB5G16   30.14F
QUAKERTOWN*    PTCLDY    64  37  36 SE10G16   30.16S
READING        MOSUNNY   65  35  33 SE9G18    30.11F
LANCASTER      PTSUNNY   64  40  41 E17       30.11F
COATESVILLE    MOCLDY    63  36  36 SE9       30.14F
POTTSTOWN      MOSUNNY   63  37  38 VRB7      30.16F
BLUE BELL      MOSUNNY   64  37  36 E10G17    30.16S
DOYLESTOWN     MOSUNNY   61  35  37 VRB5      30.16F
WILLOW GROVE   NOT AVBL
NORTH PHILA    MOSUNNY   62  31  31 E15       30.20F
PHILADELPHIA   PTSUNNY   62  36  37 SE14      30.17F
$$


USA.gov is the U.S. government's official web portal to all federal, state and local government web resources and services.